This demonstration page uses our WeatherBlox Daily Observations layout. Learn more.

Left ArrowRight Arrow

Hourly Observations for November 17, 2015

Temp ( °F °C ) Dew Point ( °F °C ) Humidity (%) Winds ( mph kmh ) Pressure ( in mb ) Visibility ( mi km ) Precip ( " mm )
12:51 am 00:51 Cloudy 44 6.7 31 -0.6 60 60 WNW 16 26 29.86 1011 10 16.0934 N/A
1:51 am 01:51 Clear 43 6.1 29 -1.7 58 58 NW 12 19 29.86 1011 10 16.0934 N/A
2:51 am 02:51 Cloudy 42 5.6 30 -1.1 62 62 NW 12 19 29.88 1012 10 16.0934 N/A
3:51 am 03:51 Partly Cloudy 42 5.6 27 -2.8 55 55 NW 14 22 29.9 1012 10 16.0934 N/A
4:51 am 04:51 Clear 41 5 27 -2.8 57 57 NW 14 22 29.91 1013 10 16.0934 N/A
5:51 am 05:51 Clear 40 4.4 28 -2.2 63 63 NNW 14 22 29.92 1013 10 16.0934 N/A
6:51 am 06:51 Sunny 39 3.9 29 -1.7 67 67 NW 15 24 29.94 1014 10 16.0934 N/A
7:51 am 07:51 undefined 41 5 30 -1.1 65 65 NW 16 26 29.96 1014 N/A N/A
8:51 am 08:51 Sunny 46 7.8 29 -1.7 51 51 NW 24 39 29.96 1015 10 16.0934 N/A
9:51 am 09:51 Sunny 49 9.4 30 -1.1 48 48 NW 23 37 29.97 1015 10 16.0934 N/A
10:51 am 10:51 Sunny 52 11.1 26 -3.3 37 37 NW 28 44 29.97 1015 10 16.0934 N/A
11:51 am 11:51 Sunny 55 12.8 27 -2.8 34 34 WNW 24 39 29.94 1014 10 16.0934 N/A
12:51 pm 12:51 Sunny 56 13.3 28 -2.2 34 34 WNW 23 37 29.91 1013 10 16.0934 N/A
1:51 pm 13:51 Sunny 57 13.9 28 -2.2 33 33 WNW 24 39 29.89 1012 10 16.0934 N/A
2:51 pm 14:51 Sunny 58 14.4 28 -2.2 32 32 NW 28 44 29.88 1012 10 16.0934 N/A
3:51 pm 15:51 Sunny 58 14.4 28 -2.2 32 32 WNW 29 46 29.86 1011 10 16.0934 N/A
4:51 pm 16:51 Sunny 57 13.9 27 -2.8 32 32 NW 22 35 29.88 1012 10 16.0934 N/A
5:51 pm 17:51 Clear 53 11.7 29 -1.7 40 40 NW 17 28 29.91 1013 10 16.0934 N/A
6:51 pm 18:51 undefined 50 10 30 -1.1 46 46 NW 17 28 29.94 1014 10 16.0934 N/A
7:51 pm 19:51 Clear 49 9.4 31 -0.6 50 50 NW 13 20 30 1016 10 16.0934 N/A
8:51 pm 20:51 Clear 47 8.3 32 undefined 56 56 WNW 16 26 29.95 1014 10 16.0934 N/A
9:51 pm 21:51 Clear 46 7.8 32 undefined 58 58 NNW 9 15 29.95 1014 10 16.0934 N/A
10:51 pm 22:51 Clear 47 8.3 31 -0.6 54 54 NNW 20 31 29.93 1014 10 16.0934 N/A
11:51 pm 23:51 Clear 47 8.3 31 -0.6 54 54 N 13 20 29.93 1014 10 16.0934 N/A

Powered by AerisWeather